Location: Home
(42.5358°N, 72.7383°W)
Time: 02:00:07
(UTC-04:00)

Tiangong - Visible Passes

Search period start: 26 October 2021 00:00
Search period end: 05 November 2021 00:00
Orbit: 381 x 390 km, 41.5° (Epoch: 25 October)

Date Brightness Start Highest point End Pass type
(mag) Time Alt. Az. Time Alt. Az. Time Alt. Az.
26 Oct 1.4 18:34:16 10° W 18:37:27 65° S 18:40:22 12° ESE visible
26 Oct 3.8 20:11:21 10° W 20:12:35 18° WSW 20:12:35 18° WSW visible
27 Oct 2.3 19:11:39 10° W 19:14:37 35° SSW 19:16:02 23° SSE visible
28 Oct 1.9 18:12:01 10° W 18:15:08 50° SSW 18:18:15 10° ESE visible
28 Oct 3.7 19:49:35 10° WSW 19:51:33 15° SSW 19:51:47 15° SSW visible
29 Oct 3.2 18:49:29 10° W 18:52:08 24° SSW 18:54:45 10° SSE visible
31 Oct 4.0 18:27:29 10° WSW 18:29:25 15° SSW 18:31:20 10° S visible
